Location: Unspecified
(22.6800°N, 112.2000°E)
Time: 07:33:28
(UTC+08:00)

Courier 1B Rocket - Pass Details

Date: 04 August 2021
Orbit: 920 x 1202 km, 28.3° (Epoch: 22 September)

Event Time Altitude Azimuth Distance (km) Brightness Sun altitude
Exits shadow 04:47:42 11° 290° (WNW) 2,602 6.9 -16.9°
Maximum altitude 04:53:52 70° 14° (NNE) 988 5.1 -15.7°
Drops below altitude 10° 05:00:06 10° 98° (E) 2,605 8.1 -14.4°
Sets 05:02:41 0° 100° (E) 3,544 8.9 -13.8°
